Regional Weather Roundup
Issued by NWS

Current Version | Previous Version | Text Only | Print | Product List | Glossary On
Versions: 1 2 3 4 5 6 7 8 9 10 11 12 13 14 15 16 17 18 19 20 21 22 23 24 25 26 27 28 29 30 31 32 33 34 35 36 37 38 39 40 41 42 43 44 45 46 47 48 49 50
000
ASUS44 KJAN 202210
RWRMS

MISSISSIPPI HOURLY WEATHER ROUNDUP
NATIONAL WEATHER SERVICE JACKSON MS
500 PM CDT SUN APR 20 2014

NOTE: "FAIR: INDICATES FEW OR NO CLOUDS BELOW 12,000 FEET WITH NO
SIGNIFICANT WEATHER AND/OR OBSTRUCTIONS TO VISIBILITY.

MSZ001>002-007>008-010>013-018>021-025>028-034>036-202300-
NORTHWEST MISSISSIPPI

CITY           SKY/WX    TMP DP  RH WIND       PRES   REMARKS
CLARKSDALE       N/A     81  50  34 CALM      30.11F
CLEVELAND      FAIR      78  48  34 S7        30.10F
GREENWOOD      MOSUNNY   79  47  32 VRB5      30.11F
GREENVILLE     SUNNY     81  46  29 E7        30.09F
GRENADA        FAIR      79  46  31 E6        30.12S
OLIVE BRANCH   MOSUNNY   79  48  34 S8        30.11F
OXFORD         FAIR      77  43  29 SW5       30.13S
TUNICA         PTCLDY    79  46  31 S8        30.11F
$$

MSZ003>006-009-014>017-022>024-029>033-037>039-202300-
NORTHEAST MISSISSIPPI

CITY           SKY/WX    TMP DP  RH WIND       PRES   REMARKS
BELMONT        FAIR      78  47  33 SE3       30.11F
COLUMBUS AFB   MOSUNNY   79  46  30 S3        30.12F
CORINTH        FAIR      79  39  24 CALM      30.12F
GOLDN TRIANGLE SUNNY     77  48  36 CALM      30.16F
STARKVILLE     FAIR      73  48  40 SE6       30.13F
TUPELO         SUNNY     78  44  29 CALM      30.11F
$$

MSZ040-058-202300-
CENTRAL MISSISSIPPI

CITY           SKY/WX    TMP DP  RH WIND       PRES   REMARKS
JACKSON INTL   MOSUNNY   81  47  30 W5        30.10F
JACKSON HAWKNS SUNNY     81  47  30 SE7       30.11F
MERIDIAN KEY   SUNNY     78  48  34 N3        30.12F
MERIDIAN NAS   MOSUNNY   77  49  37 E9        30.13F
RAYMOND        FAIR      81  75  83 CALM      30.11F
VICKSBURG      SUNNY     81  52  36 NE8       30.10F
$$

MSZ059>079-202300-
SOUTH MISSISSIPPI

CITY           SKY/WX    TMP DP  RH WIND       PRES   REMARKS
BROOKHAVEN     FAIR      81  52  36 CALM      30.12F
COLUMBIA       FAIR      79  50  36 MISG      30.10F
HATTIESBURG    SUNNY     80  48  32 NE6       30.11F
MCCOMB         SUNNY     82  47  29 N5        30.10F
NATCHEZ        MOSUNNY   82  50  32 W3        30.10S
PINE BELT      SUNNY     79  48  34 N3        30.13S
$$

MSZ080>082-202300-
COASTAL MISSISSIPPI

CITY           SKY/WX    TMP DP  RH WIND       PRES   REMARKS
BAY ST LOUIS   MOSUNNY   79  55  44 SE7       30.11S
BILOXI         SUNNY     69  58  68 S9        30.12F
PASCAGOULA     MOSUNNY   72  59  63 SW10      30.11S
GULFPORT       SUNNY     71  59  65 S13       30.11F
$$



USA.gov is the U.S. government's official web portal to all federal, state and local government web resources and services.